When you browse on this site, cookies collect data to enhance your experience and personalize the content and advertising you see.
Visit our Privacy Policy to learn more. By continuing to use the site, you agree to this use of cookies and data.
  • In Belgien
  • Länderverzeichnis
  • Für 7 Tage
  • Wassertemperatur
  • Satellitenkarten
  • Wetterkarte
  • Widgets
  • user-avatar
    Anmelden

    Stündliche Wetter Zaharovka

    Heute, 23 März, Samstag

    Zeit Temperatur Niederschläge Wind Luftdruck Luftfeuchtigkeit
    00:00 -1°C° 0 mm 5 m/S 746 mmHg 91%
    01:00 -2°C° 0 mm 4 m/S 747 mmHg 92%
    02:00 0°C° 0 mm 3 m/S 748 mmHg 93%
    03:00 -1°C° 0 mm 3 m/S 749 mmHg 94%
    04:00 -2°C° 0 mm 3 m/S 750 mmHg 95%
    05:00 -2°C° 0 mm 2 m/S 750 mmHg 95%
    06:00 -2°C° 0 mm 2 m/S 751 mmHg 96%
    07:00 -1°C° 0 mm 2 m/S 751 mmHg 97%
    08:00 +1°C° 0 mm 1 m/S 752 mmHg 98%
    09:00 +2°C° 0 mm 1 m/S 752 mmHg 98%
    10:00 +2°C° 0 mm 1 m/S 752 mmHg 97%
    11:00 +2°C° 0 mm 1 m/S 752 mmHg 97%
    12:00 +2°C° 0 mm 1 m/S 751 mmHg 97%
    13:00 +2°C° 0 mm 1 m/S 751 mmHg 97%
    14:00 +2°C° 0 mm 1 m/S 751 mmHg 97%
    15:00 +2°C° 0 mm 1 m/S 751 mmHg 95%
    16:00 +1°C° 0 mm 2 m/S 750 mmHg 94%
    17:00 +1°C° 0 mm 2 m/S 750 mmHg 92%
    18:00 -1°C° 0 mm 2 m/S 749 mmHg 92%
    19:00 -2°C° 0 mm 3 m/S 749 mmHg 92%
    20:00 -2°C° 0 mm 3 m/S 748 mmHg 92%
    21:00 -3°C° 0 mm 4 m/S 748 mmHg 91%
    22:00 -3°C° 0 mm 4 m/S 747 mmHg 91%
    23:00 -4°C° 0 mm 5 m/S 746 mmHg 90%

    Morgen, 24 März, Sonntag

    Zeit Temperatur Niederschläge Wind Luftdruck Luftfeuchtigkeit
    00:00 -2°C° 0.1 mm 5 m/S 745 mmHg 90%
    01:00 -2°C° 0.1 mm 5 m/S 745 mmHg 90%
    02:00 -2°C° 0.1 mm 5 m/S 744 mmHg 89%
    03:00 -2°C° 0.5 mm 5 m/S 743 mmHg 90%
    04:00 -2°C° 0.5 mm 5 m/S 742 mmHg 91%
    05:00 -2°C° 0.5 mm 5 m/S 741 mmHg 92%
    06:00 -1°C° 0.3 mm 5 m/S 741 mmHg 93%
    07:00 -1°C° 0.3 mm 4 m/S 740 mmHg 94%
    08:00 -1°C° 0.3 mm 4 m/S 740 mmHg 96%
    09:00 -1°C° 0 mm 4 m/S 739 mmHg 96%
    10:00 0°C° 0 mm 3 m/S 739 mmHg 97%
    11:00 +1°C° 0 mm 3 m/S 739 mmHg 98%
    12:00 0°C° 0.2 mm 4 m/S 739 mmHg 97%
    13:00 0°C° 0.2 mm 4 m/S 739 mmHg 95%
    14:00 0°C° 0.2 mm 5 m/S 738 mmHg 94%
    15:00 0°C° 0.1 mm 4 m/S 738 mmHg 91%
    16:00 -1°C° 0.1 mm 4 m/S 738 mmHg 88%
    17:00 0°C° 0.1 mm 3 m/S 738 mmHg 85%
    18:00 -1°C° 0 mm 3 m/S 739 mmHg 86%
    19:00 -1°C° 0 mm 3 m/S 739 mmHg 86%
    20:00 -2°C° 0 mm 3 m/S 739 mmHg 86%
    21:00 -4°C° 0 mm 3 m/S 739 mmHg 87%
    22:00 -4°C° 0 mm 3 m/S 739 mmHg 87%
    23:00 -5°C° 0 mm 3 m/S 739 mmHg 88%

    übermorgen, 25 März, Montag

    Zeit Temperatur Niederschläge Wind Luftdruck Luftfeuchtigkeit
    00:00 -5°C° 0 mm 3 m/S 739 mmHg 89%
    01:00 -5°C° 0 mm 3 m/S 739 mmHg 90%
    02:00 -6°C° 0 mm 3 m/S 739 mmHg 90%
    03:00 -6°C° 0 mm 3 m/S 739 mmHg 91%
    04:00 -6°C° 0 mm 3 m/S 739 mmHg 92%
    05:00 -6°C° 0 mm 3 m/S 739 mmHg 92%
    06:00 -5°C° 0 mm 3 m/S 739 mmHg 91%
    07:00 -4°C° 0 mm 3 m/S 739 mmHg 89%
    08:00 -3°C° 0 mm 4 m/S 739 mmHg 87%
    09:00 -2°C° 0 mm 4 m/S 739 mmHg 88%
    10:00 -2°C° 0 mm 4 m/S 739 mmHg 88%
    11:00 -1°C° 0 mm 4 m/S 739 mmHg 89%
    12:00 -1°C° 0 mm 4 m/S 739 mmHg 87%
    13:00 +1°C° 0 mm 3 m/S 739 mmHg 86%
    14:00 +1°C° 0 mm 3 m/S 739 mmHg 85%
    15:00 +1°C° 0 mm 3 m/S 739 mmHg 85%
    16:00 +1°C° 0 mm 2 m/S 739 mmHg 85%
    17:00 +2°C° 0 mm 1 m/S 739 mmHg 85%
    18:00 +1°C° 0 mm 1 m/S 739 mmHg 85%
    19:00 +1°C° 0 mm 1 m/S 739 mmHg 86%
    20:00 0°C° 0 mm 1 m/S 739 mmHg 87%
    21:00 -2°C° 0 mm 2 m/S 739 mmHg 89%
    22:00 -2°C° 0 mm 2 m/S 739 mmHg 90%
    23:00 -2°C° 0 mm 2 m/S 738 mmHg 91%

    26 März, Dienstag

    Zeit Temperatur Niederschläge Wind Luftdruck Luftfeuchtigkeit
    00:00 -2°C° 0 mm 3 m/S 738 mmHg 89%
    01:00 -4°C° 0 mm 3 m/S 738 mmHg 88%
    02:00 -4°C° 0 mm 3 m/S 738 mmHg 86%
    03:00 -4°C° 0 mm 3 m/S 737 mmHg 86%
    04:00 -4°C° 0 mm 3 m/S 737 mmHg 87%
    05:00 -4°C° 0 mm 3 m/S 736 mmHg 88%
    06:00 -4°C° 0 mm 3 m/S 736 mmHg 87%
    07:00 -3°C° 0 mm 4 m/S 736 mmHg 87%
    08:00 -2°C° 0 mm 4 m/S 736 mmHg 87%
    09:00 -2°C° 0.1 mm 4 m/S 736 mmHg 88%
    10:00 -1°C° 0.1 mm 4 m/S 736 mmHg 89%
    11:00 0°C° 0.1 mm 4 m/S 736 mmHg 90%
    12:00 +1°C° 0.2 mm 3 m/S 736 mmHg 90%
    13:00 +1°C° 0.2 mm 3 m/S 737 mmHg 90%
    14:00 +1°C° 0.2 mm 3 m/S 737 mmHg 90%
    15:00 -1°C° 0.2 mm 4 m/S 737 mmHg 88%
    16:00 -2°C° 0.2 mm 4 m/S 737 mmHg 87%
    17:00 -4°C° 0.2 mm 5 m/S 737 mmHg 86%
    18:00 -5°C° 0.1 mm 5 m/S 738 mmHg 85%
    19:00 -5°C° 0.1 mm 5 m/S 738 mmHg 84%
    20:00 -5°C° 0.1 mm 4 m/S 738 mmHg 84%
    21:00 -6°C° 0 mm 5 m/S 738 mmHg 84%
    22:00 -6°C° 0 mm 5 m/S 738 mmHg 84%
    23:00 -7°C° 0 mm 5 m/S 738 mmHg 84%

    27 März, Mittwoch

    Zeit Temperatur Niederschläge Wind Luftdruck Luftfeuchtigkeit
    00:00 -7°C° 0.1 mm 5 m/S 738 mmHg 85%
    01:00 -7°C° 0.1 mm 5 m/S 738 mmHg 86%
    02:00 -8°C° 0.1 mm 6 m/S 738 mmHg 87%
    03:00 -6°C° 0.2 mm 6 m/S 739 mmHg 87%
    04:00 -6°C° 0.2 mm 6 m/S 739 mmHg 86%
    05:00 -5°C° 0.2 mm 6 m/S 739 mmHg 86%
    06:00 -6°C° 0.1 mm 7 m/S 740 mmHg 85%
    07:00 -7°C° 0.1 mm 7 m/S 740 mmHg 83%
    08:00 -7°C° 0.1 mm 8 m/S 741 mmHg 82%
    09:00 -6°C° 0 mm 7 m/S 742 mmHg 81%
    10:00 -6°C° 0 mm 7 m/S 742 mmHg 79%
    11:00 -6°C° 0 mm 7 m/S 743 mmHg 78%
    12:00 -4°C° 0 mm 7 m/S 744 mmHg 76%
    13:00 -4°C° 0 mm 7 m/S 744 mmHg 75%
    14:00 -4°C° 0 mm 7 m/S 745 mmHg 73%
    15:00 -4°C° 0 mm 6 m/S 745 mmHg 74%
    16:00 -4°C° 0 mm 6 m/S 746 mmHg 74%
    17:00 -4°C° 0 mm 5 m/S 746 mmHg 74%
    18:00 -5°C° 0 mm 5 m/S 747 mmHg 76%
    19:00 -5°C° 0 mm 4 m/S 747 mmHg 79%
    20:00 -6°C° 0 mm 3 m/S 748 mmHg 82%
    21:00 -6°C° 0 mm 3 m/S 748 mmHg 83%
    22:00 -6°C° 0 mm 3 m/S 748 mmHg 84%
    23:00 -7°C° 0 mm 3 m/S 748 mmHg 85%

    28 März, Donnerstag

    Zeit Temperatur Niederschläge Wind Luftdruck Luftfeuchtigkeit
    00:00 -7°C° 0 mm 3 m/S 747 mmHg 84%
    01:00 -7°C° 0 mm 3 m/S 747 mmHg 83%
    02:00 -7°C° 0 mm 3 m/S 747 mmHg 81%
    03:00 -7°C° 0.1 mm 4 m/S 747 mmHg 82%
    04:00 -5°C° 0.1 mm 4 m/S 746 mmHg 83%
    05:00 -6°C° 0.1 mm 5 m/S 746 mmHg 84%
    06:00 -5°C° 0 mm 5 m/S 745 mmHg 84%
    07:00 -4°C° 0 mm 5 m/S 745 mmHg 84%
    08:00 -4°C° 0 mm 5 m/S 745 mmHg 84%
    09:00 -2°C° 0.1 mm 5 m/S 745 mmHg 83%
    10:00 -2°C° 0.1 mm 5 m/S 744 mmHg 82%
    11:00 -1°C° 0.1 mm 5 m/S 744 mmHg 81%
    12:00 -1°C° 0.1 mm 5 m/S 743 mmHg 82%
    13:00 -1°C° 0.1 mm 5 m/S 743 mmHg 82%
    14:00 0°C° 0.1 mm 5 m/S 742 mmHg 83%
    15:00 0°C° 0.6 mm 5 m/S 742 mmHg 84%
    16:00 0°C° 0.6 mm 5 m/S 741 mmHg 85%
    17:00 -1°C° 0.6 mm 6 m/S 741 mmHg 86%
    18:00 -1°C° 0.1 mm 5 m/S 740 mmHg 86%
    19:00 -2°C° 0.1 mm 5 m/S 740 mmHg 86%
    20:00 -2°C° 0.1 mm 4 m/S 739 mmHg 86%
    21:00 -2°C° 0.2 mm 5 m/S 739 mmHg 86%
    22:00 -2°C° 0.2 mm 6 m/S 739 mmHg 87%
    23:00 -2°C° 0.2 mm 6 m/S 739 mmHg 87%
    Mehr zeigen